Regional Weather Roundup
Issued by NWS Wakefield, VA

Home | Current Version | Previous Version | Graphics & Text | Print | Product List | Glossary On
Versions: 1 2 3 4 5 6 7 8 9 10 11 12 13 14 15 16 17 18 19 20 21 22 23 24 25 26 27 28 29 30 31 32 33 34 35 36 37 38 39 40 41 42 43 44 45 46 47 48 49 50
000
ASUS41 KAKQ 212010
RWRAKQ

REGIONAL WEATHER ROUNDUP
NATIONAL WEATHER SERVICE WAKEFIELD VA
400 PM EDT MON JUL 21 2014

Note: "fair" indicates few or no clouds below 12,000 feet with no
significant weather and/or obstructions to visibility. * = Denotes
station may not report precipitation (e.g., rain,snow,etc.),
thunder or fog.

VAZ042-051-052>054-056-212100-
NORTHERN VIRGINIA

CITY           SKY/WX    TMP DP  RH WIND       PRES   REMARKS
WASH NATIONAL  PTSUNNY   83  65  54 SE9       30.15F
DULLES         CLOUDY    81  66  60 SE5       30.15F
FORT BELVOIR   MOSUNNY   82  69  63 SE8       30.16S
QUANTICO       PTSUNNY   82  69  64 S10       30.15F
FREDERICKSBRG* CLOUDY    83  70  63 E7        30.14S
STAFFORD*      CLOUDY    81  70  68 E9        30.19F
WARRENTON      CLOUDY    81  76  85 NE6       30.15S
CULPEPER*      PTSUNNY  N/A N/A N/A SE3       30.15F
MANASSAS*      CLOUDY    81  72  74 SE7       30.15
LEESBURG*      CLOUDY    82  70  65 E5        30.16S
WINCHESTER     MOSUNNY   84  68  58 SE9       30.15F
$$

VAZ048-049-060>072-079>083-212100-
CENTRAL AND SOUTH CENTRAL VIRGINIA...AND NORTH CENTRAL NORTH CAROLINA

CITY           SKY/WX    TMP DP  RH WIND       PRES   REMARKS
RICHMOND       CLOUDY    82  70  66 E9        30.16S
CHESTERFIELD*  CLOUDY    81  64  57 E7        30.18S
HANOVER        CLOUDY    79  69  71 SE3       30.17F
TAPPAHANNOCK*  CLOUDY    79  67  66 SE3       30.18S
CHARLOTTSVILLE CLOUDY    80  71  74 E3        30.15S
ORANGE*        DRIZZLE   79  72  78 CALM      30.16F
LOUISA*        PTSUNNY   81  70  69 SE6       30.15F
FARMVILLE*     CLOUDY    81  70  69 E6        30.13S
SOUTH HILL*    CLOUDY    79  75  89 CALM      30.20R VSB 1
ROANOKE RAPIDS RAIN      68  64  88 CALM      30.16R
RALEIGH        LGT RAIN  76  72  87 NE5       30.13F FOG
$$

VAZ088>098-212100-
SOUTHEAST VIRGINIA

CITY           SKY/WX    TMP DP  RH WIND       PRES   REMARKS
NORFOLK        CLOUDY    78  69  73 E7        30.16F
VIRGINIA BEACH CLOUDY    77  71  82 E8        30.16S
NORFOLK NAVAL  CLOUDY    78  71  79 E10       30.18S
WEST POINT*    CLOUDY    81  69  67 E6        30.18S
NEWPORT NEWS   CLOUDY    81  71  71 E9        30.17R
LANGLEY AFB    CLOUDY    78  72  83 E10       30.16S
FORT EUSTIS    CLOUDY    80  71  73 VRB5      30.15S
WILLIAMSBURG*  CLOUDY    82  73  74 E5        30.17S
FRANKLIN*      CLOUDY    77  73  88 CALM      30.15S
WAKEFIELD      CLOUDY    80  71  74 CALM      30.16S
$$

VAZ020-022-025-037-045-212100-
WESTERN AND SOUTHWEST VIRGINIA

CITY           SKY/WX    TMP DP  RH WIND       PRES   REMARKS
STAUNTON*      PTSUNNY   82  64  54 SE7       30.18F
HOT SPRINGS VA PTSUNNY   72  61  67 SE7       30.29F
LYNCHBURG      CLOUDY    79  70  73 VRB3      30.17F
DANVILLE       CLOUDY    80  69  69 NE7       30.14S
MARTINSVILLE   LGT RAIN  78  71  78 CALM      30.17F
ROANOKE        CLOUDY    79  68  69 SE8       30.17F
BLACKSBURG     PTSUNNY   79  72  78 SE10      30.21F
DUBLIN*        PTSUNNY   79  69  69 SE12      30.20S
MARION*        CLOUDY    79  68  67 SE3       30.20F
HILLSVILLE*    CLOUDY    72  66  81 SE5       30.22F
RICHLANDS*     MOCLDY    82  66  56 SE6       30.18F
WISE*          PTSUNNY   81  61  50 CALM      30.19S
ABINGDON*      PTSUNNY   85  65  50 SE10G17   30.15S
$$

MDZ021>025-VAZ099-100-212100-
SOUTHERN MARYLAND AND THE DELMARVA PENINSULA

CITY           SKY/WX    TMP DP  RH WIND       PRES   REMARKS
PATUXENT RIVER PTSUNNY   78  67  68 S9        30.17S
BAY BRIDGE APT   N/A     81  66  61 W3        30.17S
LEONARDTOWN    CLOUDY    77  63  61 E7        30.19S
DOVER          SUNNY     79  68  69 E13       30.16F
GEORGETOWN     MOSUNNY   79  65  62 SE6       30.19S
EASTON         MOSUNNY   84  66  54 CALM      30.20F
CAMBRIDGE      PTSUNNY   82  63  51 SE3       30.16S
SALISBURY      NOT AVBL
OCEAN CITY     MOSUNNY  N/A N/A N/A E9        30.19S
WALLOPS ISLAND PTSUNNY   79  69  71 E12       30.18F
ACCOMACK*        N/A     79  64  61 NE9       30.17S
$$

NCZ012>017-030>032-212100-
EASTERN NORTH CAROLINA

CITY           SKY/WX    TMP DP  RH WIND       PRES   REMARKS
ELIZABETH CITY LGT RAIN  78  71  79 E6        30.16F
AHOSKIE*       CLOUDY    76  71  83 SE7       30.15S
EDENTON*       LGT RAIN  76  74  95 NE5       30.15S
CURRITUCK*     CLOUDY    78  69  73 E3        30.17F
KILL DEVIL HLS RAIN      76  72  86 CALM      30.15F
MANTEO         NOT AVBL
CAPE HATTERAS  CLOUDY    80  72  76 E8        30.14F
GOLDSBORO      LGT RAIN  75  74  98 SE6       30.10F
WASHINGTON     CLOUDY    74  73  94 CALM      30.13F
GREENVILLE     LGT RAIN  73  72  94 S6        30.13F
NEW BERN       LGT RAIN  77  73  87 CALM      30.15F
WILMINGTON     RAIN      73  71  93 NE9       30.11F
$$

VAZ048-212100-
ELSEWHERE

CITY           SKY/WX    TMP DP  RH WIND       PRES   REMARKS
HARRISBURG PA  CLOUDY    79  65  62 CALM      30.16F
BALTIMORE      PTSUNNY   80  64  58 CALM      30.16F
ANNAPOLIS      CLOUDY    79  66  64 SE6       30.17F
ANDREWS AFB    MOSUNNY   82  67  61 SE7       30.16F
WILMINGTON DE  MOSUNNY   82  61  48 VRB3      30.17S
PHILADELPHIA   PTSUNNY   85  57  38 S6        30.15S
WILDWOOD NJ*   MOSUNNY   77  61  57 SE8       30.20S
ATLANTIC CITY  SUNNY     77  64  64 SE10      30.17S
HENDERSON NC   CLOUDY    76  70  80 CALM      30.14F
GREENSBORO     CLOUDY    77  71  82 NE3       30.12F
ROCKY MOUNT    CLOUDY    77  73  87 VRB6      30.13S
FAYETTEVILLE   LGT RAIN  75  72  90 SE7       30.12S
CHARLOTTE      LGT RAIN  76  70  82 VRB7      30.10F
$$

VAZ100-212100-
MARINE

STATION/POSITION TIME  TEMP    WIND        PRES    WAVE   SWELL
                       AIR SEA DIR/SP/G            HT/PER HT/PER
                 (UTC) (F)     (DEG/KT/KT) (MB)    (FT/S) (FT/S)
44066 TX TWR #4  2000   69 72   20/  8/ 10 1021.3F   3/ 8   3/ 8
CAPE MAY NJ      2000   74 75  130/  7/ 10 1022.0F
LEWES DE         2000   73 74  100/  9/ 12 1022.0S
15NM E FENWICK I 2000   73 75              1022.2S   4/ 8
OCEAN-CITY-INLET 2000   75 70   80/  5/  9 1021.9S
WACHAPREAGUE VA  2000   74 78   70/  9/ 12 1021.7S
THOMAS POINT MD  2000   78 80  200/  3/  3 1022.0F
GOOSES REEF MD   2000   78     220/  2/  4 1022.1F
COVE POINT MD    2000   76     190/  7/  9 1021.5S
SOLOMONS ISLAND  2000      82                N/A
BISHOPS HEAD MD  2000   78 80  170/  2/  4 1021.4R
PINEY POINT MD   2000          160/  9/ 10   N/A
POTOMAC MD       2000   77     130/  6/  8 1021.0S
CAMBRIDGE MD     2000   80 80   40/  2/  4 1021.3F
LEWISETTA VA     2000   77 80  110/  9/ 10 1021.1F
RAPPAHANNOCK LGT 2000          130/  5/  6 1022.1F
STINGRAY PT      2000   77      90/  2/  4 1020.9F
YORK RVR RNG VA  2000   76     140/  9/ 11 1020.9S
YORKTOWN VA      2000   77 80  110/  7/  8 1021.1S
JAMESTOWN VA     2000   77     120/  6/ 10   N/A
DOMINION TERM VA 2000   76      80/  9/ 12 1021.4F
KIPTOPEKE VA     2000      79   90/  8/ 11   N/A
CHES BAY BRIDGE  2000   74 73   60/ 10/ 12 1020.9S
CAPE HENRY VA    2000   75      80/  9/ 11 1020.2F
WILLOUBY STN VA  2000          100/ 11/ 12 1020.6S
S CRANEY ISL VA  2000           50/  6/  9 1021.2F
CAPE HENRY BUOY  2000      76                N/A     3/ 6
1ST LANDING BUOY 2000   75      80/ 10/ 10 1021.0S
CAPE CHARLES BUO 2000      75                N/A     3/ 8
OFFSHORE WE BUOY 2000      76                N/A     3/ 8
64NM E OF VA BCH 2000   76 78   60/  6/  8 1021.0F   3/ 7   3/ 7
DUCK PIER NC     2000   77 76  110/  7/  8 1020.6F
44056 DUCK FRF   2000                        N/A     2/ 7
OREGON INLET NC  2000   76 77  100/  3/  5 1021.2F
HATTERAS NC      2000   79 81   60/  6/  8 1021.0F
DIAMOND SHLS NC  2000          VRB  8/ 10  1020.3F   3/ 8   3/ 8
CAPE LOOKOUT NC  1900   79      50/  3/  4 1019.8F
$$


USA.gov is the U.S. government's official web portal to all federal, state and local government web resources and services.